TimeCST,TemperatureF,Dew PointF,Humidity,Sea Level PressureIn,VisibilityMPH,Wind Direction,Wind SpeedMPH,Gust SpeedMPH,PrecipitationIn,Events,Conditions,WindDirDegrees,DateUTC
7:35 AM,41.0,32.0,70,29.98,10.0,SSE,5.8,-,N/A,,Clear,150,2012-12-06 13:35:00
7:55 AM,41.0,33.8,76,29.97,10.0,SE,6.9,-,N/A,,Clear,140,2012-12-06 13:55:00
8:15 AM,41.0,33.8,76,29.98,10.0,SE,6.9,-,N/A,,Clear,140,2012-12-06 14:15:00
8:35 AM,41.0,33.8,76,29.98,10.0,SE,6.9,-,N/A,,Clear,140,2012-12-06 14:35:00
8:55 AM,42.8,33.8,70,29.97,10.0,SE,6.9,-,N/A,,Clear,130,2012-12-06 14:55:00
9:15 AM,42.8,33.8,70,29.97,10.0,SE,6.9,-,N/A,,Clear,130,2012-12-06 15:15:00
9:35 AM,44.6,33.8,66,29.98,10.0,SE,5.8,-,N/A,,Clear,140,2012-12-06 15:35:00
9:55 AM,44.6,35.6,71,29.98,10.0,SE,4.6,-,N/A,,Clear,130,2012-12-06 15:55:00
10:15 AM,46.4,35.6,66,29.98,10.0,SE,3.5,-,N/A,,Clear,130,2012-12-06 16:15:00
10:55 AM,46.4,37.4,71,29.97,10.0,SE,3.5,-,N/A,,Clear,140,2012-12-06 16:55:00
11:15 AM,48.2,37.4,66,29.95,10.0,SE,6.9,-,N/A,,Clear,130,2012-12-06 17:15:00
11:35 AM,50.0,39.2,66,29.94,10.0,SE,5.8,-,N/A,,Clear,130,2012-12-06 17:35:00
11:55 AM,50.0,41.0,71,29.93,10.0,SE,4.6,-,N/A,,Scattered Clouds,130,2012-12-06 17:55:00
12:15 PM,50.0,41.0,71,29.91,10.0,SE,5.8,-,N/A,,Scattered Clouds,140,2012-12-06 18:15:00
12:35 PM,51.8,41.0,67,29.91,10.0,SSE,5.8,-,N/A,,Mostly Cloudy,150,2012-12-06 18:35:00
12:55 PM,51.8,42.8,71,29.90,10.0,SE,6.9,-,N/A,,Mostly Cloudy,140,2012-12-06 18:55:00
1:15 PM,51.8,41.0,67,29.90,10.0,SSE,6.9,-,N/A,,Mostly Cloudy,160,2012-12-06 19:15:00
1:35 PM,51.8,42.8,71,29.89,10.0,SSE,5.8,-,N/A,,Overcast,150,2012-12-06 19:35:00
1:55 PM,53.6,42.8,67,29.88,10.0,SSE,3.5,-,N/A,,Overcast,160,2012-12-06 19:55:00
2:15 PM,53.6,42.8,67,29.87,10.0,East,3.5,-,N/A,,Scattered Clouds,100,2012-12-06 20:15:00
2:35 PM,53.6,42.8,67,29.88,10.0,Calm,Calm,-,N/A,,Scattered Clouds,0,2012-12-06 20:35:00
2:55 PM,53.6,42.8,67,29.88,10.0,Calm,Calm,-,N/A,,Clear,0,2012-12-06 20:55:00
3:15 PM,53.6,42.8,67,29.87,10.0,Calm,Calm,-,N/A,,Clear,0,2012-12-06 21:15:00
3:35 PM,53.6,42.8,67,29.88,10.0,Calm,Calm,-,N/A,,Mostly Cloudy,0,2012-12-06 21:35:00
3:55 PM,51.8,42.8,71,29.88,10.0,Calm,Calm,-,N/A,,Overcast,0,2012-12-06 21:55:00
4:15 PM,51.8,42.8,71,29.88,10.0,NNE,3.5,-,N/A,,Scattered Clouds,20,2012-12-06 22:15:00
4:35 PM,50.0,42.8,76,29.89,10.0,Calm,Calm,-,N/A,,Clear,0,2012-12-06 22:35:00
4:55 PM,50.0,41.0,71,29.88,10.0,NNE,3.5,-,N/A,,Clear,20,2012-12-06 22:55:00
5:15 PM,48.2,41.0,76,29.88,10.0,NNE,4.6,-,N/A,,Clear,30,2012-12-06 23:15:00
5:35 PM,48.2,41.0,76,29.89,10.0,NNE,3.5,-,N/A,,Clear,30,2012-12-06 23:35:00
5:55 PM,48.2,41.0,76,29.89,10.0,North,3.5,-,N/A,,Clear,10,2012-12-06 23:55:00
6:35 PM,46.4,41.0,81,29.89,10.0,NE,3.5,-,N/A,,Clear,40,2012-12-07 00:35:00
6:55 PM,46.4,41.0,81,29.90,10.0,Calm,Calm,-,N/A,,Clear,0,2012-12-07 00:55:00
7:15 PM,46.4,41.0,81,29.91,10.0,NW,4.6,-,N/A,,Clear,320,2012-12-07 01:15:00
7:35 PM,44.6,41.0,87,29.91,10.0,NW,4.6,-,N/A,,Scattered Clouds,310,2012-12-07 01:35:00
7:55 PM,44.6,41.0,87,29.91,10.0,NNW,3.5,-,N/A,,Scattered Clouds,330,2012-12-07 01:55:00
8:15 PM,44.6,41.0,87,29.91,10.0,North,3.5,-,N/A,,Clear,360,2012-12-07 02:15:00
8:35 PM,44.6,41.0,87,29.91,10.0,North,3.5,-,N/A,,Scattered Clouds,10,2012-12-07 02:35:00
8:55 PM,44.6,41.0,87,29.90,10.0,Calm,Calm,-,N/A,,Mostly Cloudy,0,2012-12-07 02:55:00
9:15 PM,44.6,41.0,87,29.90,10.0,NNW,3.5,-,N/A,,Scattered Clouds,340,2012-12-07 03:15:00
9:35 PM,44.6,41.0,87,29.90,10.0,North,3.5,-,N/A,,Scattered Clouds,350,2012-12-07 03:35:00
9:55 PM,42.8,39.2,87,29.90,10.0,Calm,Calm,-,N/A,,Mostly Cloudy,0,2012-12-07 03:55:00
10:15 PM,44.6,41.0,87,29.89,10.0,NNE,3.5,-,N/A,,Scattered Clouds,20,2012-12-07 04:15:00
10:35 PM,44.6,41.0,87,29.89,10.0,NNW,3.5,-,N/A,,Mostly Cloudy,340,2012-12-07 04:35:00
10:55 PM,44.6,41.0,87,29.89,10.0,NNW,3.5,-,N/A,,Overcast,340,2012-12-07 04:55:00
11:15 PM,44.6,41.0,87,29.88,10.0,NNE,5.8,-,N/A,,Overcast,30,2012-12-07 05:15:00
11:35 PM,44.6,41.0,87,29.88,10.0,North,4.6,-,N/A,,Overcast,360,2012-12-07 05:35:00
11:55 PM,44.6,41.0,87,29.88,10.0,NW,5.8,-,N/A,,Overcast,310,2012-12-07 05:55:00